TimeEDT,TemperatureF,Dew PointF,Humidity,Sea Level PressureIn,VisibilityMPH,Wind Direction,Wind SpeedMPH,Gust SpeedMPH,PrecipitationIn,Events,Conditions,WindDirDegrees,DateUTC
12:15 AM,63.0,59.2,87,30.25,10.0,Calm,Calm,-,N/A,,Clear,0,2013-08-26 04:15:00
12:35 AM,62.2,59.2,90,30.26,10.0,Calm,Calm,-,N/A,,Clear,0,2013-08-26 04:35:00
12:55 AM,62.1,59.2,90,30.25,10.0,Calm,Calm,-,N/A,,Clear,0,2013-08-26 04:55:00
1:15 AM,61.7,58.6,90,30.25,10.0,Calm,Calm,-,N/A,,Clear,0,2013-08-26 05:15:00
1:35 AM,61.5,58.5,90,30.25,10.0,South,4.6,-,N/A,,Clear,180,2013-08-26 05:35:00
1:55 AM,61.7,57.6,86,30.24,10.0,South,3.5,-,N/A,,Clear,190,2013-08-26 05:55:00
2:15 AM,60.3,57.0,89,30.24,10.0,Calm,Calm,-,N/A,,Clear,0,2013-08-26 06:15:00
2:35 AM,60.3,56.5,87,30.23,10.0,SSW,3.5,-,N/A,,Clear,200,2013-08-26 06:35:00
2:55 AM,60.1,56.3,87,30.22,10.0,SSW,4.6,-,N/A,,Clear,200,2013-08-26 06:55:00
3:15 AM,60.4,56.3,86,30.22,10.0,SSW,5.8,-,N/A,,Clear,210,2013-08-26 07:15:00
3:35 AM,61.0,56.5,85,30.21,10.0,SSW,5.8,-,N/A,,Clear,200,2013-08-26 07:35:00
3:55 AM,60.3,56.3,87,30.21,10.0,SSW,4.6,-,N/A,,Clear,210,2013-08-26 07:55:00
4:15 AM,60.1,56.3,87,30.21,10.0,SW,5.8,-,N/A,,Clear,220,2013-08-26 08:15:00
4:35 AM,60.3,56.7,88,30.21,10.0,SSW,4.6,-,N/A,,Clear,210,2013-08-26 08:35:00
4:55 AM,61.3,56.7,85,30.21,10.0,SW,4.6,-,N/A,,Clear,220,2013-08-26 08:55:00
5:15 AM,60.1,56.3,87,30.21,10.0,SSW,4.6,-,N/A,,Clear,210,2013-08-26 09:15:00
5:35 AM,59.5,56.3,89,30.21,10.0,SSW,3.5,-,N/A,,Clear,200,2013-08-26 09:35:00
5:55 AM,59.7,56.3,88,30.21,10.0,Calm,Calm,-,N/A,,Clear,0,2013-08-26 09:55:00
6:15 AM,58.6,55.8,90,30.21,10.0,Calm,Calm,-,N/A,,Clear,0,2013-08-26 10:15:00
6:35 AM,59.2,56.3,90,30.22,10.0,Calm,Calm,-,N/A,,Clear,0,2013-08-26 10:35:00
6:55 AM,58.5,55.6,90,30.22,10.0,SSW,3.5,-,N/A,,Clear,200,2013-08-26 10:55:00
7:15 AM,57.9,55.6,92,30.22,7.0,Calm,Calm,-,N/A,,Clear,0,2013-08-26 11:15:00
7:35 AM,58.8,56.5,92,30.22,10.0,Calm,Calm,-,N/A,,Clear,0,2013-08-26 11:35:00
7:55 AM,60.3,57.4,90,30.23,7.0,SSW,3.5,-,N/A,,Clear,210,2013-08-26 11:55:00
8:15 AM,63.0,59.9,90,30.23,7.0,Calm,Calm,-,N/A,,Clear,0,2013-08-26 12:15:00
8:35 AM,65.5,62.2,89,30.23,7.0,WSW,4.6,-,N/A,,Clear,240,2013-08-26 12:35:00
8:55 AM,67.8,64.2,88,30.23,7.0,SW,5.8,-,N/A,,Clear,230,2013-08-26 12:55:00
9:15 AM,69.6,65.8,88,30.23,7.0,WSW,6.9,-,N/A,,Clear,250,2013-08-26 13:15:00
9:35 AM,71.8,67.1,85,30.23,7.0,WSW,8.1,-,N/A,,Clear,250,2013-08-26 13:35:00
9:55 AM,73.4,68.2,84,30.23,7.0,WSW,4.6,-,N/A,,Clear,250,2013-08-26 13:55:00
10:15 AM,74.8,68.9,82,30.22,7.0,WSW,8.1,-,N/A,,Clear,250,2013-08-26 14:15:00
10:35 AM,75.9,69.3,80,30.22,7.0,WSW,9.2,-,N/A,,Clear,250,2013-08-26 14:35:00
10:55 AM,77.0,70.2,79,30.22,7.0,West,5.8,-,N/A,,Clear,260,2013-08-26 14:55:00
11:15 AM,78.3,70.7,77,30.22,7.0,West,8.1,-,N/A,,Clear,260,2013-08-26 15:15:00
11:35 AM,79.7,71.1,75,30.21,7.0,WSW,8.1,-,N/A,,Clear,250,2013-08-26 15:35:00
11:55 AM,81.1,71.4,72,30.21,10.0,West,10.4,-,N/A,,Scattered Clouds,260,2013-08-26 15:55:00
12:15 PM,81.7,70.7,69,30.21,7.0,West,9.2,-,N/A,,Scattered Clouds,260,2013-08-26 16:15:00
12:35 PM,81.7,70.2,68,30.21,7.0,West,8.1,-,N/A,,Scattered Clouds,270,2013-08-26 16:35:00
12:55 PM,82.8,69.8,65,30.20,7.0,West,9.2,-,N/A,,Clear,260,2013-08-26 16:55:00
1:15 PM,83.3,68.5,61,30.20,7.0,West,9.2,-,N/A,,Clear,280,2013-08-26 17:15:00
1:35 PM,84.0,67.3,57,30.19,7.0,WNW,8.1,-,N/A,,Clear,300,2013-08-26 17:35:00
1:55 PM,84.6,67.6,57,30.18,10.0,West,10.4,-,N/A,,Clear,260,2013-08-26 17:55:00
2:15 PM,84.0,66.9,56,30.17,7.0,West,6.9,-,N/A,,Clear,270,2013-08-26 18:15:00
2:35 PM,83.8,67.3,57,30.16,10.0,West,8.1,-,N/A,,Clear,270,2013-08-26 18:35:00
2:55 PM,84.2,66.9,56,30.15,10.0,West,9.2,-,N/A,,Clear,270,2013-08-26 18:55:00
3:15 PM,84.0,66.7,56,30.15,7.0,West,8.1,-,N/A,,Clear,280,2013-08-26 19:15:00
3:35 PM,85.1,67.1,55,30.14,7.0,West,8.1,-,N/A,,Clear,280,2013-08-26 19:35:00
3:55 PM,85.5,66.6,53,30.13,7.0,West,8.1,-,N/A,,Scattered Clouds,260,2013-08-26 19:55:00
4:15 PM,84.4,65.8,54,30.13,7.0,West,8.1,-,N/A,,Scattered Clouds,260,2013-08-26 20:15:00
4:35 PM,83.3,66.4,57,30.11,7.0,WSW,9.2,-,N/A,,Scattered Clouds,250,2013-08-26 20:35:00
4:55 PM,82.9,66.7,58,30.11,10.0,WSW,10.4,-,N/A,,Clear,250,2013-08-26 20:55:00
5:15 PM,83.3,67.3,58,30.10,10.0,WSW,6.9,-,N/A,,Clear,250,2013-08-26 21:15:00
5:35 PM,82.6,67.1,59,30.10,10.0,WSW,8.1,-,N/A,,Clear,250,2013-08-26 21:35:00
5:55 PM,81.5,67.5,62,30.10,7.0,WSW,5.8,-,N/A,,Clear,240,2013-08-26 21:55:00
6:15 PM,81.1,68.0,64,30.10,7.0,WSW,4.6,-,N/A,,Clear,240,2013-08-26 22:15:00
6:35 PM,80.2,68.0,66,30.10,7.0,WSW,4.6,-,N/A,,Clear,250,2013-08-26 22:35:00
6:55 PM,79.9,68.4,68,30.10,7.0,West,3.5,-,N/A,,Clear,260,2013-08-26 22:55:00
7:15 PM,80.8,68.2,65,30.10,7.0,West,4.6,-,N/A,,Clear,270,2013-08-26 23:15:00
7:35 PM,80.2,66.9,64,30.10,5.0,West,4.6,-,N/A,,Haze,270,2013-08-26 23:35:00
7:55 PM,78.4,67.1,68,30.10,7.0,West,3.5,-,N/A,,Clear,260,2013-08-26 23:55:00
8:15 PM,76.5,67.3,73,30.11,7.0,SW,3.5,-,N/A,,Clear,230,2013-08-27 00:15:00
8:35 PM,74.5,67.1,78,30.11,7.0,SW,3.5,-,N/A,,Clear,220,2013-08-27 00:35:00
8:55 PM,73.0,66.6,80,30.10,7.0,SSW,4.6,-,N/A,,Clear,210,2013-08-27 00:55:00
9:15 PM,71.8,66.0,82,30.11,7.0,SSW,4.6,-,N/A,,Clear,200,2013-08-27 01:15:00
9:35 PM,70.5,66.2,86,30.10,5.0,SW,5.8,-,N/A,,Haze,220,2013-08-27 01:35:00
9:55 PM,70.5,66.2,86,30.10,5.0,SW,5.8,-,N/A,,Haze,220,2013-08-27 01:55:00
10:15 PM,70.3,65.8,86,30.10,7.0,SW,6.9,-,N/A,,Clear,220,2013-08-27 02:15:00
10:35 PM,70.2,65.8,86,30.10,10.0,SSW,6.9,-,N/A,,Clear,210,2013-08-27 02:35:00
10:55 PM,69.3,65.7,88,30.10,10.0,SSW,6.9,-,N/A,,Clear,210,2013-08-27 02:55:00
11:15 PM,69.1,65.7,89,30.10,7.0,SW,5.8,-,N/A,,Clear,230,2013-08-27 03:15:00
11:35 PM,69.6,66.2,89,30.10,7.0,SW,8.1,-,N/A,,Clear,230,2013-08-27 03:35:00
11:55 PM,71.4,66.6,85,30.10,7.0,SW,8.1,-,N/A,,Clear,230,2013-08-27 03:55:00